Location: Newark
(27.9675°N, 86.8869°E)
Time: 22:00:46
(UTC+00:00)

Vanguard 3 - Pass Details

Date: 29 October 2019
Orbit: 508 x 3263 km, 33.3° (Epoch: 16 November)

Event Time Altitude Azimuth Distance (km) Brightness Sun altitude
Rises 12:22:06 0° 226° (SW) 6,226 12.6 -11.9°
Reaches altitude 10° 12:27:06 10° 221° (SW) 4,776 11.8 -13.0°
Maximum altitude 12:38:23 43° 155° (SSE) 1,936 8.9 -15.4°
Enters shadow 12:42:51 22° 97° (E) 2,270 8.8 -16.4°
Drops below altitude 10° 12:44:56 10° 85° (E) 2,809 - -16.9°
Sets 12:47:08 0° 78° (ENE) 3,504 - -17.4°
